Wind_Speed
12 13 11 7 6 15 19 13 6 5 3 2 2 1 1 1 2 3 4 5 3 1 1 1 2 3 3 3 3 5 6 6 5 5 8 6 4 4 5 5 6 7 9
10 12 10 8 4 5 7 5 4 4 3 3 3 2 2 2 2 2 2 3 4 5 5 3 3 3 5 4 4 4 3 4 4 4 6 8 9 9 10 7 7 12 10
8 10 9 6 3 2 2 3 3 3 2 2 2 2 3 3 2 1 1 1 2 3 4 5 5 3 2 2 2 3 3 3 4 5 6 6 8 11 11 10 10 8 12
6 9 9 7 7 8 7 4 2 2 1 1 2 3 3 3 3 2 2 1 1 2 2 2 1 1 2 2 2 2 3 5 6 6 7 9 9 11 11 9 11 13 17
4 7 6 7 12 11 3 7 9 6 2 0 2 4 5 4 4 4 3 2 2 2 2 1 2 2 2 1 2 3 4 5 5 7 7 8 9 10 12 10 11 12 9
3 4 3 3 11 12 19 14 4 11 8 4 4 5 6 5 5 5 4 4 1 1 2 1 1 1 1 1 2 3 3 4 5 6 7 8 8 8 8 8 9 11 13
2 3 4 3 6 7 8 14 15 3 9 9 11 8 5 4 4 5 5 4 2 2 3 4 4 3 3 4 6 6 6 5 5 6 7 8 8 8 9 9 11 13 12
1 2 2 3 3 5 8 6 9 12 15 11 12 11 8 3 5 5 4 6 4 3 5 6 7 7 7 7 7 7 7 6 7 7 7 8 8 9 9 10 11 12 12
2 1 1 2 2 3 5 7 6 7 8 5 6 16 11 4 6 6 4 7 9 8 6 6 7 8 9 9 9 10 8 7 8 7 8 8 9 9 11 11 12 13 13
4 4 2 1 2 2 5 6 7 7 5 1 2 1 2 5 6 5 5 6 8 9 7 7 7 9 9 11 10 9 9 10 9 9 9 9 10 11 11 11 12 12 13
7 6 5 4 4 5 6 8 10 10 9 9 6 8 9 9 10 8 9 10 10 9 10 9 10 9 9 10 12 12 12 11 10 10 10 11 12 12 12 11 11 12 12
10 9 10 8 8 11 11 14 15 15 14 13 13 12 13 14 16 18 19 16 11 12 12 11 11 12 11 12 12 13 12 11 11 11 10 10 11 12 13 14 13 13 13
12 13 12 13 12 14 16 17 17 18 16 17 19 18 16 16 18 17 17 17 16 14 15 12 12 14 14 14 13 12 12 12 12 12 11 12 14 14 11 11 12 13 15
14 13 13 13 15 17 17 18 17 18 18 20 23 22 20 19 19 19 19 14 20 18 16 16 16 15 15 14 14 14 14 14 14 13 13 14 13 12 12 14 14 13 13
14 14 15 17 17 18 18 18 15 15 17 19 21 18 21 21 17 19 17 17 19 17 18 17 17 17 17 15 15 16 16 15 15 15 14 14 13 13 14 14 15 14 13
16 15 16 17 15 15 16 17 16 17 20 20 22 22 23 23 21 21 19 22 18 19 20 19 20 20 16 15 16 16 16 15 15 15 15 14 15 14 15 15 15 14 12
14 12 12 15 17 18 18 19 22 24 24 24 24 25 25 24 24 21 20 27 23 21 22 20 21 19 17 17 16 15 16 17 17 15 15 15 16 15 16 15 15 14 13
14 14 15 19 21 24 26 27 27 27 27 27 25 24 23 24 24 21 24 26 27 22 17 25 22 21 20 19 17 16 19 17 16 15 16 15 15 16 15 15 14 13 12
19 21 22 24 27 30 31 32 31 30 29 27 25 23 23 23 21 21 24 24 23 23 19 24 23 22 22 21 19 19 19 16 16 15 15 17 18 16 15 13 9 9 10
24 26 27 28 26 24 25 25 25 24 23 23 22 22 22 21 20 17 18 15 22 25 25 23 24 23 24 23 22 20 17 14 15 18 18 20 19 15 15 12 8 9 12
23 22 21 21 20 20 21 21 22 21 19 19 19 21 20 20 21 18 24 28 29 31 28 24 25 25 25 25 25 20 15 15 17 18 17 20 21 17 11 12 16 17 20
16 17 17 18 21 23 23 21 20 19 19 18 18 19 19 18 18 18 23 25 26 28 26 26 26 26 25 25 24 20 14 18 19 18 16 17 17 13 15 18 22 23 24
13 15 17 17 18 19 20 20 19 19 15 16 15 16 20 17 16 15 17 17 19 22 22 25 27 26 26 27 24 21 18 22 23 23 21 17 16 19 22 23 21 25 29
15 14 16 18 18 18 17 18 19 19 19 22 20 21 24 22 20 16 18 19 18 19 21 22 21 23 25 27 27 24 24 27 28 28 26 24 23 29 28 30 30 32 36
16 16 17 19 18 19 19 19 19 20 21 18 17 20 23 25 28 27 26 27 26 24 26 27 26 27 26 26 26 28 28 31 31 25 28 34 34 27 34 41 36 36 41
20 20 20 21 20 20 19 19 21 22 24 25 26 29 29 30 30 35 33 33 33 32 33 35 28 31 31 30 34 35 28 32 39 33 32 32 31 36 39 34 40 41 41
Wind_Direction
350 350 355 10 68 70 91 108 143 141 100 71 67 29 300 331 340 360 16 15 11 54 99 71 66 62 97 131 169 183 179 199 223 235 224 216 212 257 271 198 218 244 224
354 1 14 33 69 53 72 94 78 75 74 64 53 28 1 356 333 348 15 11 23 39 56 72 76 75 93 112 138 146 155 184 203 212 226 228 231 261 271 252 245 239 260
5 7 7 19 12 346 7 40 31 19 29 41 53 44 23 19 358 6 21 354 357 19 38 59 73 86 102 111 160 186 200 217 219 232 240 237 252 246 262 265 236 228 253
16 6 12 16 356 327 320 325 313 304 351 49 50 47 43 32 16 335 325 331 332 347 345 354 17 88 131 146 163 186 214 224 226 233 236 241 245 247 254 249 231 236 244
32 13 25 44 37 42 342 312 307 293 275 81 343 13 19 17 6 349 352 354 346 311 289 292 268 256 234 225 232 228 235 236 232 235 240 246 249 253 261 243 239 255 257
57 33 36 46 37 52 66 78 319 277 269 238 259 328 336 349 355 6 350 340 14 291 312 294 201 223 225 248 285 281 269 259 252 249 248 248 245 250 252 253 255 262 264
89 22 12 15 5 27 29 49 57 330 246 251 265 299 316 335 341 352 359 330 321 280 264 259 261 256 279 317 318 300 281 272 261 252 246 245 248 251 252 256 262 269 277
152 355 5 27 359 13 14 14 23 43 35 262 251 256 268 279 349 330 344 345 332 273 248 251 268 277 277 280 287 292 288 284 268 257 254 254 256 258 262 270 277 284 289
199 278 332 22 11 340 352 350 345 23 40 20 251 257 242 256 332 3 336 326 331 313 285 244 258 270 273 289 290 290 291 284 265 266 265 265 268 272 274 276 278 279 284
218 249 250 333 7 340 321 312 309 306 322 121 116 144 129 232 274 284 318 312 313 319 298 263 254 272 275 286 298 284 291 287 284 283 287 288 286 281 277 276 274 274 280
218 236 243 263 288 307 307 309 297 286 280 283 272 237 246 240 258 263 284 312 304 312 303 281 267 266 275 285 288 292 291 291 291 294 298 294 287 284 278 273 275 277 277
233 239 248 264 286 295 298 298 297 292 283 278 279 277 255 249 254 266 273 279 282 292 301 295 284 280 281 279 279 283 287 286 289 289 286 279 273 272 278 282 283 281 282
232 252 257 268 267 285 292 293 297 291 289 284 280 278 280 266 267 276 276 261 271 277 285 287 274 276 277 278 278 282 281 281 279 278 278 274 275 278 276 270 271 276 280
240 249 265 274 282 284 289 292 293 290 286 273 276 279 277 272 267 272 274 266 263 267 273 291 285 280 277 272 272 280 278 275 273 272 271 270 271 277 284 288 288 282 277
260 267 278 284 287 288 288 290 288 287 289 284 283 280 282 280 265 262 259 261 267 255 267 280 277 278 278 266 266 271 270 268 265 267 268 271 276 279 279 277 278 278 276
259 266 274 276 268 270 275 279 276 283 286 288 283 281 282 280 274 268 248 275 255 269 258 274 278 276 267 262 266 265 265 264 264 262 262 269 277 276 273 271 272 273 273
254 262 272 274 272 275 277 277 279 282 283 282 278 276 275 274 274 264 250 257 258 265 250 276 273 268 264 266 264 261 257 256 257 253 256 265 268 266 269 272 270 267 263
265 272 276 278 279 279 281 280 279 279 279 280 273 270 270 269 272 258 254 259 260 258 264 269 272 267 262 265 262 269 259 256 253 252 259 264 265 267 270 267 262 260 261
273 277 279 278 278 279 278 277 275 275 276 275 269 266 266 268 267 266 252 255 255 242 256 268 264 259 256 259 258 265 255 256 261 265 263 270 274 271 262 255 265 269 285
281 284 286 285 283 283 282 279 278 277 277 276 267 263 263 266 267 256 268 252 256 252 263 267 259 254 254 254 256 261 254 267 263 258 261 270 271 267 261 257 279 291 295
285 285 283 284 284 286 285 283 283 284 281 277 271 268 265 266 269 257 237 253 254 258 258 260 254 251 249 250 250 252 249 265 264 262 266 266 259 264 275 274 272 293 303
287 290 290 291 293 294 294 290 284 282 283 280 275 270 270 273 273 267 259 256 251 262 265 254 252 251 248 250 252 245 243 262 267 267 265 264 263 279 286 295 291 288 292
295 291 291 291 294 298 298 298 295 291 285 280 281 285 280 288 289 281 275 272 260 256 258 260 253 248 245 248 251 247 246 263 271 266 264 267 267 267 264 269 283 284 285
290 291 287 289 291 296 301 297 292 288 296 284 277 272 270 280 278 280 280 271 264 261 262 258 249 250 253 253 253 254 244 264 267 267 267 266 264 254 259 267 279 280 283
279 285 288 285 290 295 294 290 288 288 293 290 290 295 294 290 287 279 276 280 278 271 256 259 254 253 252 245 253 253 252 256 258 263 264 262 258 278 277 268 269 279 279
260 269 271 277 291 301 297 299 290 285 286 288 292 291 291 285 286 282 272 272 271 272 271 281 273 249 246 237 243 240 243 245 244 248 250 257 268 272 269 267 282 277 279
Height
3177 3173 3170 3167 3166 3165 3160 3160 3163 3163 3163 3162 3162 3161 3162 3161 3161 3160 3159 3159 3159 3159 3158 3158 3157 3156 3156 3156 3157 3158 3157 3158 3159 3160 3161 3161 3161 3161 3162 3162 3162 3163 3162
3175 3172 3168 3167 3167 3166 3165 3164 3164 3162 3162 3161 3161 3161 3161 3161 3161 3160 3159 3159 3159 3158 3158 3158 3158 3158 3157 3157 3157 3158 3158 3159 3159 3159 3160 3160 3161 3160 3160 3161 3161 3161 3162
3172 3170 3168 3167 3168 3166 3164 3163 3162 3162 3162 3161 3161 3161 3160 3160 3160 3159 3158 3159 3158 3158 3157 3157 3157 3157 3157 3157 3157 3157 3157 3158 3158 3158 3158 3158 3158 3158 3158 3158 3159 3159 3160
3169 3168 3167 3166 3167 3165 3164 3163 3162 3162 3162 3162 3161 3161 3160 3160 3159 3158 3157 3157 3157 3157 3157 3157 3156 3156 3156 3156 3156 3156 3156 3156 3156 3156 3156 3156 3156 3156 3156 3157 3157 3157 3157
3164 3166 3166 3165 3165 3164 3162 3163 3163 3161 3161 3161 3161 3161 3160 3159 3158 3158 3157 3157 3156 3156 3156 3156 3156 3155 3155 3155 3154 3154 3154 3154 3153 3153 3154 3154 3154 3154 3155 3154 3155 3155 3154
3162 3162 3163 3163 3163 3163 3162 3158 3159 3160 3160 3160 3160 3160 3159 3158 3157 3157 3157 3156 3156 3155 3155 3155 3155 3155 3154 3154 3153 3153 3153 3152 3152 3151 3151 3152 3152 3152 3152 3152 3152 3151 3151
3161 3161 3161 3160 3162 3163 3161 3158 3156 3157 3158 3158 3158 3159 3158 3157 3157 3156 3155 3155 3155 3154 3155 3155 3154 3154 3154 3153 3152 3152 3151 3151 3150 3150 3149 3149 3149 3150 3149 3149 3149 3148 3148
3158 3159 3160 3159 3160 3161 3160 3158 3157 3155 3156 3155 3156 3157 3157 3156 3156 3156 3155 3155 3154 3153 3153 3153 3152 3152 3151 3151 3150 3150 3149 3148 3147 3147 3147 3147 3147 3146 3146 3146 3146 3145 3145
3157 3157 3158 3159 3158 3158 3158 3158 3157 3156 3154 3153 3154 3154 3154 3155 3155 3155 3154 3153 3152 3151 3150 3150 3149 3149 3149 3149 3148 3147 3146 3146 3145 3145 3144 3144 3144 3144 3143 3143 3142 3142 3141
3156 3156 3157 3157 3156 3155 3156 3157 3157 3155 3155 3154 3153 3153 3154 3153 3153 3153 3153 3152 3151 3148 3147 3147 3147 3147 3146 3145 3144 3144 3143 3143 3142 3142 3142 3141 3141 3141 3140 3140 3139 3138 3137
3155 3156 3157 3157 3155 3154 3154 3154 3154 3153 3153 3152 3151 3151 3152 3151 3149 3149 3149 3149 3148 3146 3145 3144 3144 3143 3142 3142 3141 3140 3140 3139 3139 3139 3139 3138 3137 3137 3137 3137 3136 3135 3134
3153 3153 3153 3154 3155 3151 3151 3151 3150 3149 3149 3148 3148 3148 3147 3147 3146 3145 3145 3145 3146 3144 3141 3140 3140 3140 3139 3139 3138 3137 3137 3136 3136 3136 3136 3136 3135 3134 3133 3132 3132 3131 3130
3149 3148 3148 3149 3150 3148 3148 3147 3145 3144 3144 3143 3142 3142 3142 3141 3141 3140 3140 3140 3141 3140 3138 3137 3136 3135 3135 3134 3134 3133 3133 3133 3133 3133 3133 3133 3132 3131 3130 3130 3129 3128 3126
3144 3143 3143 3143 3144 3143 3142 3141 3140 3139 3138 3138 3137 3136 3136 3136 3136 3134 3134 3134 3134 3135 3135 3133 3132 3132 3131 3130 3129 3129 3129 3129 3130 3130 3130 3129 3129 3127 3126 3125 3124 3124 3123
3138 3136 3137 3136 3136 3135 3135 3135 3134 3133 3133 3132 3131 3130 3130 3129 3130 3129 3129 3128 3130 3129 3129 3129 3128 3126 3126 3125 3125 3125 3125 3125 3125 3125 3125 3125 3125 3124 3123 3122 3121 3120 3119
3134 3132 3131 3131 3131 3130 3130 3130 3129 3128 3126 3125 3125 3124 3123 3123 3122 3122 3122 3123 3122 3123 3124 3124 3123 3121 3121 3121 3121 3121 3120 3120 3120 3121 3121 3120 3120 3119 3118 3118 3117 3116 3115
3129 3127 3126 3126 3126 3125 3125 3124 3122 3121 3119 3119 3118 3117 3116 3115 3114 3113 3114 3115 3114 3116 3116 3117 3116 3116 3116 3116 3116 3115 3116 3116 3116 3116 3116 3116 3116 3115 3114 3113 3112 3111 3111
3123 3121 3118 3119 3119 3118 3118 3116 3114 3112 3111 3111 3110 3110 3109 3108 3106 3105 3106 3107 3107 3109 3110 3111 3110 3110 3109 3110 3110 3111 3111 3111 3111 3111 3111 3111 3111 3110 3109 3108 3107 3106 3106
3116 3114 3112 3112 3111 3110 3108 3106 3104 3102 3102 3102 3102 3102 3101 3101 3100 3099 3100 3101 3101 3102 3103 3103 3103 3103 3103 3103 3104 3105 3105 3105 3105 3105 3105 3105 3105 3104 3103 3102 3101 3101 3101
3108 3106 3103 3102 3101 3100 3099 3097 3095 3094 3094 3094 3094 3093 3093 3093 3093 3093 3094 3094 3095 3096 3096 3096 3096 3096 3095 3095 3097 3098 3098 3097 3098 3099 3100 3099 3098 3098 3097 3096 3096 3096 3097
3100 3096 3094 3093 3093 3092 3091 3090 3088 3087 3087 3087 3087 3086 3085 3085 3085 3084 3086 3087 3087 3088 3088 3088 3088 3088 3088 3088 3089 3090 3090 3091 3091 3092 3093 3092 3092 3092 3092 3092 3091 3090 3090
3092 3089 3087 3087 3087 3087 3086 3084 3082 3080 3080 3080 3080 3079 3080 3079 3078 3078 3078 3078 3079 3080 3080 3080 3080 3080 3081 3082 3082 3083 3083 3084 3084 3085 3086 3086 3085 3085 3085 3085 3085 3085 3084
3085 3083 3082 3083 3083 3082 3080 3078 3076 3075 3075 3075 3075 3075 3073 3074 3073 3073 3073 3072 3072 3073 3073 3072 3072 3072 3072 3074 3075 3075 3076 3077 3078 3078 3078 3079 3079 3079 3078 3078 3076 3078 3076
3078 3077 3078 3078 3077 3076 3075 3073 3071 3070 3069 3070 3069 3070 3070 3068 3067 3067 3066 3065 3065 3065 3064 3065 3065 3065 3066 3066 3067 3067 3068 3070 3071 3070 3071 3071 3071 3069 3068 3068 3067 3068 3067
3072 3073 3073 3072 3071 3069 3068 3067 3065 3064 3063 3064 3063 3062 3061 3061 3061 3060 3059 3059 3060 3059 3056 3056 3055 3056 3057 3057 3057 3057 3059 3061 3062 3061 3061 3061 3060 3060 3059 3059 3057 3057 3056
3066 3067 3067 3067 3067 3065 3064 3062 3060 3059 3057 3057 3057 3056 3055 3054 3053 3052 3051 3050 3049 3049 3048 3046 3045 3045 3045 3045 3046 3046 3047 3048 3049 3049 3049 3049 3050 3050 3048 3047 3046 3044 3044